Tracking 26442 objects as of 6-Dec-2022
HD Live streaming from Space Station
objects crossing your sky now

OPS 9316 (IDSCS 6)

Track OPS 9316 (IDSCS 6) now!
OPS 9316 (IDSCS 6) is classified as:


NORAD ID: 2220
Int'l Code: 1966-053G
Perigee: 33,717.4 km
Apogee: 34,217.9 km
Inclination: 6.0 °
Period: 1,343.8 minutes
Semi major axis: 40338 km
RCS: 0.0794 m2 (small)
Launch date: June 16, 1966
Source: United States (US)
Launch site: AIR FORCE EASTERN TEST RANGE (AFETR)
aabbcc
Your satellite tracking list
Your tracking list is empty




NASA's NSSDC Master Catalog

Two Line Element Set (TLE):
1 02220U 66053G   22339.24077028 -.00000102  00000-0  00000-0 0  9999
2 02220   5.9771  56.2867 0062038 145.5691 243.8422  1.07156926125236
Source of the keplerian elements: AFSPC